Home   Weather   Oldham   Past weeks

Flag for United Kingdom Past Weather in Oldham, England, United Kingdom — Yesterday and Last 2 Weeks

Now
55 °F

Scattered clouds.


Feels Like: 53 °F
Forecast: 53 / 64 °F
Wind: 8 mph from South

Location: Manchester Airport

Current Time: Sep 26, 2016 at 11:32:02 AM

Latest Report: Sep 26, 2016 at 10:50 AM


Visibility: N/A

Pressure: 30.09 "Hg

Humidity: 88%

Dew Point: 52 °F

Location of OldhamLocation

Past Weather in Oldham — Graph

°F

Oldham Temperature Yesterday

Maximum temperature yesterday: 64 °F (at 12:20 AM)
Minimum temperature yesterday: 50 °F (at 11:20 PM)
Average temperature yesterday: 57 °F

High & Low Weather Summary for the Past Weeks

 TemperatureHumidityPressure
High79 °F (Sep 14, 2:50 PM)100% (Sep 13, 6:20 PM)30.24 "Hg (Sep 13, 6:20 PM)
Low45 °F (Sep 18, 5:50 AM)52% (Sep 11, 1:50 PM)29.68 "Hg (Sep 25, 1:50 AM)
Average60 °F81%30.00 "Hg
* Reported Sep 11 10:20 AM — Sep 26 10:20 AM, Oldham, Weather by CustomWeather, © 2016

Note: Actual official high and low records may vary slightly from our data, if they occured in-between our weather recording intervals... More about our weather records

Advertising

Oldham Weather History for the Previous 24 Hours

Scroll right to see more
 ConditionsComfort  
Time TempWeatherWind HumidityBarometerVisibility
10:20 AM
Mon, Sep 26
55 °FLight rain. Scattered clouds.9 mph88%30.09 "HgN/A
9:50 AM54 °FPassing clouds.8 mph94%30.09 "HgN/A
9:20 AM54 °FPassing clouds.9 mph88%30.09 "HgN/A
8:50 AM52 °FPassing clouds.9 mph94%30.09 "HgN/A
8:20 AM52 °FPassing clouds.9 mph94%30.09 "HgN/A
7:50 AM52 °FRain. Passing clouds.10 mph94%30.09 "HgN/A
7:20 AM52 °FRain. Passing clouds.10 mph88%30.09 "Hg6 mi
6:50 AM52 °FPassing clouds.8 mph88%30.07 "HgN/A
6:20 AM50 °FClear.7 mph94%30.07 "Hg10 mi
5:50 AM50 °FClear.10 mph94%30.07 "Hg10 mi
5:20 AM50 °FClear.10 mph88%30.07 "Hg10 mi
4:50 AM50 °FClear.9 mph88%30.09 "Hg10 mi
4:20 AM50 °FClear.9 mph88%30.09 "Hg10 mi
3:50 AM50 °FClear.9 mph88%30.09 "Hg10 mi
3:20 AM50 °FClear.9 mph88%30.09 "Hg10 mi
2:50 AM52 °FClear.9 mph82%30.09 "Hg10 mi
2:20 AM52 °FClear.9 mph82%30.09 "Hg10 mi
1:50 AM52 °FPassing clouds.12 mph82%30.07 "Hg10 mi
1:20 AM52 °FClear.8 mph88%30.07 "Hg10 mi
12:50 AM52 °FClear.8 mph88%30.07 "Hg10 mi
12:20 AM52 °FClear.8 mph82%30.07 "Hg10 mi
11:50 PM
Sun, Sep 25
52 °FPassing clouds.9 mph82%30.07 "HgN/A
11:20 PM50 °FClear.9 mph88%30.07 "Hg10 mi
10:50 PM52 °FClear.8 mph82%30.04 "Hg10 mi
10:20 PM52 °FClear.9 mph82%30.04 "Hg10 mi
9:50 PM52 °FClear.10 mph82%30.04 "Hg10 mi
8:50 PM54 °FSprinkles. Passing clouds.9 mph77%30.01 "HgN/A
8:20 PM54 °FPassing clouds.9 mph77%30.01 "HgN/A
7:50 PM54 °FPassing clouds.9 mph72%30.01 "HgN/A
7:20 PM55 °FPassing clouds.15 mph67%29.98 "HgN/A
6:50 PM55 °FPassing clouds.13 mph72%29.98 "HgN/A
6:20 PM57 °FPassing clouds.10 mph67%29.98 "HgN/A
5:50 PM59 °FPassing clouds.16 mph59%29.95 "HgN/A
5:20 PM59 °FPassing clouds.16 mph63%29.95 "HgN/A
4:50 PM59 °FPassing clouds.16 mph63%29.95 "HgN/A
4:20 PM59 °FPassing clouds.15 mph68%29.92 "HgN/A
3:50 PM59 °FScattered showers. Passing clouds.13 mph63%29.92 "HgN/A
3:20 PM61 °FScattered showers. Passing clouds.14 mph59%29.92 "HgN/A
2:50 PM61 °FPassing clouds.17 mph55%29.89 "HgN/A
2:20 PM63 °FPassing clouds.16 mph56%29.89 "HgN/A
1:50 PM61 °FPassing clouds.17 mph63%29.89 "HgN/A
1:20 PM61 °FPassing clouds.17 mph68%29.89 "HgN/A
12:50 PM59 °FPassing clouds.15 mph68%29.86 "HgN/A
12:20 PM59 °FPassing clouds.12 mph77%29.86 "HgN/A
11:50 AM55 °FPassing clouds.9 mph88%29.86 "HgN/A
11:20 AM54 °FSprinkles. Scattered clouds.16 mph88%29.83 "HgN/A
Weather by CustomWeather, © 2016

See weather overviewHow to use our weather pages